TimeEDT,TemperatureF,Dew PointF,Humidity,Sea Level PressureIn,VisibilityMPH,Wind Direction,Wind SpeedMPH,Gust SpeedMPH,PrecipitationIn,Events,Conditions,WindDirDegrees,DateUTC
12:52 AM,46.0,37.0,71,30.02,10.0,West,5.8,-,N/A,,Clear,280,2013-09-24 04:52:00
1:52 AM,45.0,37.9,76,30.01,10.0,NW,3.5,-,N/A,,Clear,320,2013-09-24 05:52:00
2:52 AM,46.0,37.9,73,30.00,10.0,Calm,Calm,-,N/A,,Mostly Cloudy,0,2013-09-24 06:52:00
3:52 AM,46.0,37.9,73,29.99,10.0,Calm,Calm,-,N/A,,Overcast,0,2013-09-24 07:52:00
4:52 AM,45.0,37.9,76,29.98,10.0,Calm,Calm,-,N/A,,Mostly Cloudy,0,2013-09-24 08:52:00
5:52 AM,44.1,37.9,79,29.98,10.0,Calm,Calm,-,N/A,,Partly Cloudy,0,2013-09-24 09:52:00
6:52 AM,43.0,37.0,80,29.98,10.0,Calm,Calm,-,N/A,,Clear,0,2013-09-24 10:52:00
7:52 AM,46.0,39.0,76,29.97,10.0,Calm,Calm,-,N/A,,Clear,0,2013-09-24 11:52:00
8:52 AM,51.1,39.0,63,29.94,10.0,WNW,9.2,-,N/A,,Clear,290,2013-09-24 12:52:00
9:52 AM,55.9,37.9,51,29.92,10.0,WNW,15.0,20.7,N/A,,Clear,300,2013-09-24 13:52:00
10:52 AM,57.9,37.9,47,29.91,10.0,NW,17.3,20.7,N/A,,Clear,310,2013-09-24 14:52:00
11:52 AM,62.1,37.9,41,29.90,10.0,NW,15.0,23.0,N/A,,Clear,310,2013-09-24 15:52:00
12:52 PM,64.9,37.9,37,29.88,10.0,WNW,10.4,19.6,N/A,,Clear,300,2013-09-24 16:52:00
1:52 PM,66.9,37.0,33,29.87,10.0,NNW,15.0,20.7,N/A,,Clear,330,2013-09-24 17:52:00
2:52 PM,68.0,37.9,33,29.84,10.0,NW,9.2,20.7,N/A,,Clear,320,2013-09-24 18:52:00
3:52 PM,69.1,37.0,31,29.84,10.0,NW,12.7,20.7,N/A,,Clear,310,2013-09-24 19:52:00
4:52 PM,68.0,37.0,32,29.85,10.0,NNW,10.4,-,N/A,,Clear,330,2013-09-24 20:52:00
5:52 PM,64.9,37.0,36,29.86,10.0,NNW,11.5,-,N/A,,Clear,330,2013-09-24 21:52:00
6:52 PM,59.0,39.9,49,29.89,10.0,North,4.6,-,N/A,,Clear,360,2013-09-24 22:52:00
7:52 PM,54.0,44.1,69,29.92,10.0,NNW,4.6,-,N/A,,Mostly Cloudy,330,2013-09-24 23:52:00
8:52 PM,57.0,41.0,55,29.93,10.0,NNE,3.5,-,N/A,,Partly Cloudy,20,2013-09-25 00:52:00
9:52 PM,51.1,43.0,74,29.94,10.0,Calm,Calm,-,N/A,,Clear,0,2013-09-25 01:52:00
10:52 PM,46.9,42.1,83,29.94,10.0,NW,3.5,-,N/A,,Clear,320,2013-09-25 02:52:00
11:52 PM,46.0,42.1,86,29.93,10.0,NNW,3.5,-,N/A,,Clear,330,2013-09-25 03:52:00